Wind_Speed
11 12 13 14 15 15 16 18 19 20 21 22 23 23 24 24 24 23 22 21 19 16 11 5 3 4 4 4 1 5 7 6 6 9 9 5 6 7 8 9 8 10 11 10 11 6 3 7 9 9 5 4 4 0 2 3 3 4 4 4 1 3 3 5 7 7 4 4 6 6 5 6 5 3 2 1 5 2 1 2 3 3 3 1 3 10 20 22
11 12 13 14 15 15 16 17 19 20 21 22 23 23 24 24 25 24 23 21 18 16 13 7 3 5 5 5 4 6 9 6 4 9 8 5 6 7 7 9 8 9 10 10 12 9 6 5 7 7 5 3 3 1 2 2 4 4 4 4 1 5 4 5 7 6 3 2 5 4 3 4 5 6 5 3 1 1 3 3 4 3 2 1 6 11 15 18
12 12 13 14 15 16 16 17 18 20 21 22 23 24 25 25 25 25 24 22 16 14 14 9 4 5 6 7 5 6 9 5 2 4 5 5 5 6 7 9 8 8 10 9 9 8 5 2 2 3 5 4 3 3 4 3 2 2 4 4 4 6 4 4 6 7 4 2 4 3 2 3 4 5 4 4 4 4 7 6 3 5 7 7 7 10 13 15
12 13 13 14 15 16 17 17 18 19 20 21 23 24 25 25 26 26 26 24 17 13 14 11 6 4 7 8 6 6 8 3 1 1 3 4 5 6 7 8 9 8 8 8 8 7 6 4 3 4 4 3 4 3 4 4 1 2 4 2 5 3 2 4 6 6 3 3 5 3 2 3 3 3 3 6 5 5 9 10 11 12 14 13 9 11 14 15
11 13 13 14 15 16 17 17 18 19 20 21 22 24 25 26 26 27 27 24 18 12 12 12 8 5 5 7 6 6 6 4 2 2 2 2 4 6 7 8 10 9 7 8 8 7 7 7 6 6 5 3 5 4 2 3 1 2 1 3 5 4 2 5 5 5 4 5 4 4 3 4 3 2 5 10 7 7 7 10 13 11 14 17 13 13 14 14
12 13 13 14 15 15 16 17 18 18 19 20 21 22 24 25 26 27 28 25 19 13 12 11 8 6 3 5 5 3 3 1 2 1 1 2 3 6 7 8 11 10 7 8 9 8 8 8 6 5 4 3 4 3 1 4 1 2 1 2 4 4 3 3 2 3 5 7 5 5 4 4 5 4 5 11 13 8 3 6 9 8 12 16 15 13 11 11
12 13 13 14 14 15 16 17 17 18 19 19 20 21 23 25 26 27 28 26 19 14 12 10 7 5 2 2 3 3 3 2 2 1 2 2 3 6 7 8 10 9 6 9 11 6 6 8 6 4 4 4 1 0 2 5 4 4 1 2 2 5 5 3 1 2 5 6 6 4 3 5 7 5 1 9 16 7 3 4 6 9 12 14 12 11 10 12
13 13 13 13 14 15 16 17 18 18 19 20 20 21 22 24 25 26 28 26 20 15 13 9 5 2 1 1 1 3 3 3 2 1 3 3 4 6 6 6 9 8 7 12 10 3 5 7 4 4 3 2 2 1 3 4 5 4 2 3 1 3 7 5 3 3 5 5 2 5 4 5 8 3 1 11 14 4 2 1 7 10 12 11 11 11 10 10
13 13 14 14 14 15 16 17 18 19 19 20 21 21 22 24 26 27 27 27 20 14 13 9 4 2 2 3 4 3 4 2 1 2 2 3 5 6 6 6 9 9 10 11 9 5 4 2 1 3 2 2 3 1 3 3 2 1 3 2 2 4 6 4 4 5 5 4 3 6 5 5 3 2 5 11 9 2 3 5 7 10 11 10 10 10 10 10
14 14 14 15 15 15 16 17 18 19 20 21 22 22 22 23 26 27 27 27 18 13 12 7 3 2 2 2 6 1 4 0 2 2 3 3 4 5 5 7 8 9 9 9 9 9 4 3 3 3 4 3 2 2 0 1 1 3 2 3 3 4 5 2 5 4 1 3 4 6 6 4 3 2 5 6 3 6 6 6 6 9 11 11 8 8 10 10
14 14 15 15 15 16 17 18 19 20 20 21 22 22 22 23 26 27 28 26 15 11 11 6 4 3 3 3 5 3 4 0 2 2 3 3 3 4 6 7 8 8 7 8 8 7 5 6 7 5 2 1 1 1 0 2 3 3 1 3 5 5 4 1 3 4 1 2 6 6 5 3 2 2 6 3 4 6 8 8 7 8 9 9 8 7 8 10
15 15 15 15 16 16 17 18 19 20 21 22 23 23 23 24 26 27 29 25 12 10 11 5 3 2 1 3 4 6 4 2 2 2 3 2 3 4 7 8 7 8 6 7 6 5 6 5 6 5 1 2 1 2 1 2 2 2 3 2 7 7 3 1 2 3 1 2 5 5 4 4 5 8 7 2 6 5 7 9 8 8 8 6 7 6 6 10
16 16 16 16 16 16 17 18 19 21 22 22 23 24 24 25 26 27 29 22 10 9 10 5 4 3 1 1 4 5 5 4 2 1 2 3 4 5 7 7 7 8 6 8 7 6 6 3 5 5 2 4 1 1 2 4 2 1 3 3 4 8 3 2 1 1 2 2 2 3 4 6 9 12 6 4 8 7 6 9 8 8 7 6 7 6 7 10
18 18 17 17 17 17 17 19 20 21 22 23 24 25 25 25 26 28 28 17 9 9 9 5 3 2 2 3 4 3 6 4 2 1 1 3 3 3 5 6 6 7 8 9 8 7 6 4 6 5 2 4 1 1 3 6 4 1 1 2 3 3 4 5 0 3 4 1 2 3 4 9 10 10 6 7 9 10 10 10 9 9 7 7 7 7 8 9
19 19 18 17 17 17 18 19 20 22 23 24 24 26 25 25 28 29 23 12 8 8 7 3 2 3 2 4 3 2 5 4 2 2 1 3 2 2 4 5 5 7 8 8 8 7 5 4 6 4 0 1 4 3 4 5 4 4 2 3 4 0 5 9 3 5 5 2 3 3 4 10 11 9 5 7 8 10 11 11 11 11 10 9 8 8 8 7
20 19 19 18 18 17 19 19 20 22 23 24 24 25 24 25 28 24 15 8 7 7 4 1 3 4 1 4 2 2 3 3 1 2 1 3 3 3 4 5 6 6 6 6 7 6 4 5 4 2 1 2 5 5 4 5 4 4 1 3 4 2 4 7 3 3 3 0 1 2 3 7 9 6 2 6 9 10 10 10 11 12 11 10 9 8 7 7
21 20 20 20 18 18 19 19 20 21 23 24 24 25 24 24 23 16 8 5 4 2 1 2 3 3 2 3 2 3 2 2 2 1 1 2 4 3 3 4 5 5 5 5 4 3 3 4 1 1 3 4 3 4 5 4 4 4 2 2 4 3 3 5 5 3 1 2 4 4 5 11 13 8 3 6 9 10 11 12 13 12 11 10 8 8 8 8
21 21 20 20 19 18 18 18 19 21 23 23 23 25 22 18 15 9 4 2 2 2 2 2 2 2 3 3 1 2 1 0 1 1 1 0 3 4 3 4 3 2 5 4 3 4 4 3 2 1 4 4 3 6 1 4 3 4 3 3 4 3 4 5 6 3 2 1 5 3 6 14 19 15 7 8 10 12 14 14 12 11 10 9 9 9 10 10
21 21 20 20 19 18 17 17 18 19 22 22 22 21 15 10 9 4 2 3 1 1 0 2 1 2 3 4 3 2 1 1 1 1 0 1 2 3 5 5 3 3 4 2 2 5 3 3 3 0 2 4 2 5 7 8 7 6 5 4 4 5 6 6 6 4 1 2 7 7 9 13 18 19 12 8 10 13 14 11 9 8 9 9 10 10 11 12
21 21 20 19 19 18 16 16 17 18 20 21 23 18 7 5 6 3 5 5 3 2 2 5 4 4 5 3 3 2 1 1 1 2 1 2 2 3 3 4 5 4 3 3 2 3 3 1 3 6 7 8 8 7 6 5 6 5 4 4 6 6 7 7 5 4 0 2 9 9 9 13 16 19 18 7 9 12 12 11 11 10 10 11 12 13 13 13
20 20 19 19 19 17 15 15 15 16 17 18 18 11 2 2 3 4 6 7 6 3 4 7 4 6 7 3 2 1 1 2 2 2 3 2 3 2 2 3 3 0 2 2 2 3 4 2 8 9 9 7 6 6 6 6 5 3 4 4 5 6 8 9 4 4 1 3 7 8 7 13 16 17 20 8 8 12 13 12 15 14 12 11 13 15 14 9
18 19 18 19 19 16 14 13 14 14 15 14 11 5 3 2 1 2 1 5 8 2 3 4 2 6 7 4 3 1 2 2 5 4 5 4 3 3 2 4 4 4 2 1 1 4 3 6 11 8 6 5 5 6 7 6 4 2 2 2 4 4 5 8 4 4 2 3 5 8 8 14 16 17 22 15 9 12 11 13 16 14 14 13 14 14 12 10
18 19 18 18 18 15 12 11 12 13 12 9 7 4 3 2 4 3 1 2 8 4 1 2 3 4 4 4 6 6 2 4 4 6 6 7 2 3 4 4 4 2 1 3 5 2 2 8 7 4 7 8 6 4 7 5 2 3 3 2 5 4 2 5 5 5 3 3 4 8 10 14 14 14 19 13 7 9 8 12 14 10 12 14 13 12 13 14
17 17 17 18 18 15 10 10 10 8 8 6 5 3 3 3 3 2 1 1 5 5 3 4 3 4 4 2 7 9 3 4 3 3 4 8 4 2 4 5 4 1 4 5 7 5 7 6 3 6 6 6 5 3 6 5 3 4 5 6 6 6 6 6 4 5 5 3 3 6 10 10 6 8 11 5 3 6 6 8 11 9 10 9 8 11 13 15
14 14 15 17 18 14 10 8 5 4 5 3 3 3 4 3 2 1 1 2 4 6 4 3 2 3 5 4 5 7 2 2 4 3 3 6 6 3 1 2 3 4 4 4 5 5 9 5 6 5 2 4 6 4 5 7 3 4 5 10 10 8 8 6 5 6 5 4 3 4 7 8 2 3 9 4 4 6 3 7 12 9 8 8 10 12 12 12
12 13 14 15 16 14 9 4 3 4 4 1 2 2 3 2 2 1 2 3 3 6 2 2 2 4 6 3 1 4 2 3 3 2 3 4 4 3 2 1 0 3 5 5 3 4 4 1 3 5 5 5 5 5 6 7 5 3 4 7 7 4 3 3 4 4 2 4 4 3 1 9 4 2 9 7 7 11 7 8 12 9 7 10 12 12 10 11
11 11 12 14 14 13 7 3 3 4 1 1 1 2 1 2 2 1 2 3 5 5 3 1 1 3 5 1 1 4 3 4 1 2 2 3 2 2 3 3 1 2 4 4 1 3 3 3 4 4 5 5 5 5 6 8 7 4 4 5 6 5 4 4 1 2 4 2 4 2 4 8 8 5 8 5 6 13 12 11 14 10 10 12 13 11 11 12
11 10 11 12 12 11 7 4 4 2 2 0 1 2 1 2 3 2 3 3 6 2 3 1 1 2 2 0 3 4 3 2 2 1 1 1 1 3 2 7 6 5 3 6 5 4 3 4 4 5 4 3 6 5 7 11 5 5 5 6 6 5 4 4 3 3 2 3 5 5 5 4 9 6 3 4 4 11 12 14 15 11 11 13 12 11 11 12
11 11 13 11 10 11 9 6 5 3 2 1 2 1 2 3 1 5 3 5 5 0 1 1 2 0 2 2 1 2 1 1 1 3 3 2 0 3 2 6 6 5 2 3 6 5 1 4 7 7 4 6 5 2 5 8 3 3 6 5 4 5 4 4 2 2 2 3 9 7 8 4 7 4 1 3 3 9 11 12 12 10 10 10 11 11 10 9
12 13 13 10 9 10 9 7 7 6 4 1 1 2 3 2 3 4 3 6 3 0 1 1 1 1 4 4 2 2 1 2 1 2 3 1 2 6 1 3 6 5 1 4 4 5 2 1 3 4 4 5 4 3 1 3 2 4 6 4 5 4 4 4 2 2 2 6 11 8 12 8 5 3 4 3 5 8 8 8 8 9 9 9 9 9 10 10
13 14 12 9 9 9 6 5 4 3 3 4 4 4 3 2 4 4 8 7 2 1 1 1 1 2 5 5 2 1 1 2 2 1 2 1 2 4 1 2 3 3 3 5 5 4 4 0 2 2 3 5 6 5 3 2 3 4 5 4 4 4 4 4 4 3 0 8 7 3 8 8 7 6 5 6 8 7 8 7 8 10 11 9 7 7 9 10
14 15 13 10 11 11 8 4 1 1 2 7 6 4 5 1 1 5 6 4 2 3 3 2 1 3 3 2 1 2 2 2 2 4 4 3 3 3 4 5 5 1 3 5 4 5 3 4 3 1 2 5 6 4 3 4 3 4 4 5 2 4 4 3 4 0 3 8 4 3 4 4 10 10 8 10 11 10 11 10 9 10 10 7 5 6 7 8
15 16 13 10 11 13 11 9 6 3 2 6 4 5 6 3 6 6 5 4 3 2 1 3 1 3 5 2 2 3 2 2 3 3 2 3 3 5 6 5 6 3 3 3 1 3 4 4 0 2 3 3 8 6 2 2 1 5 5 5 4 1 1 4 5 3 6 7 3 4 3 4 7 7 12 17 16 14 11 9 8 7 7 6 5 6 7 8
15 15 14 11 13 15 11 9 9 6 3 3 3 5 4 7 6 6 8 7 3 2 2 3 3 3 4 3 4 4 3 4 4 5 2 3 2 5 6 7 6 3 2 2 1 2 4 7 3 6 3 5 10 7 5 5 4 4 5 5 5 5 4 4 4 5 7 7 3 3 2 4 3 4 9 13 12 10 4 3 5 5 5 4 3 5 7 8
14 15 15 13 14 16 12 10 10 7 3 1 4 4 8 9 3 4 8 6 2 0 1 1 4 4 2 3 3 4 4 4 3 5 4 4 4 5 5 7 8 5 4 3 2 3 4 9 6 2 0 6 8 3 4 7 3 2 3 5 3 5 5 3 4 5 2 5 5 4 4 5 3 7 7 2 5 7 3 4 3 4 3 2 3 6 7 8
14 14 14 14 16 18 16 13 12 9 2 3 4 7 10 8 5 5 6 5 5 5 4 0 2 4 4 3 3 4 3 3 2 3 4 4 4 6 5 5 9 11 9 6 3 3 3 6 3 1 1 3 4 3 2 3 4 2 3 4 4 3 5 2 4 1 4 4 6 3 6 6 2 6 5 2 6 7 3 3 2 3 2 3 6 7 7 8
17 14 12 15 18 18 17 15 13 10 2 3 7 11 8 6 6 7 5 6 5 6 7 4 4 5 6 3 4 5 3 2 3 3 4 3 4 6 7 5 6 14 16 9 3 4 4 4 3 3 2 3 1 3 1 1 4 5 3 5 3 2 3 3 1 3 3 4 6 3 8 7 1 4 2 1 7 9 7 5 3 3 4 6 8 8 8 9
17 11 11 19 22 20 18 17 15 9 4 2 11 12 5 5 7 7 6 6 4 6 7 7 6 6 7 5 4 6 7 4 5 5 4 4 5 5 8 5 6 14 18 12 4 3 3 3 4 2 3 2 2 2 1 1 3 5 4 3 3 3 2 2 2 3 2 4 7 8 10 8 5 4 2 4 9 9 8 5 4 7 8 8 9 9 8 8
14 7 8 16 23 23 21 20 14 7 2 6 13 11 5 5 6 5 8 7 4 6 7 7 7 5 5 7 5 6 8 7 7 6 4 5 5 4 8 7 7 10 13 12 7 3 3 3 4 0 1 2 1 2 5 3 2 3 1 2 1 3 4 3 3 3 3 4 7 9 12 9 6 6 6 9 11 10 7 6 8 11 11 10 10 9 9 10
12 6 4 9 18 26 27 18 10 5 4 9 10 7 2 2 4 6 10 9 5 4 6 6 7 5 5 6 5 5 6 6 7 5 5 5 4 5 8 7 5 4 4 6 6 2 3 3 5 1 2 1 4 5 9 10 7 4 3 2 2 1 2 1 1 2 4 4 4 5 10 12 5 6 7 9 10 11 10 8 9 11 11 12 11 10 10 11
9 7 5 11 22 30 27 13 6 6 5 9 9 5 2 2 4 7 9 8 5 3 4 5 7 7 6 6 4 3 5 4 6 6 5 5 5 5 8 9 8 7 5 3 4 5 4 4 5 3 2 5 6 3 3 8 8 8 8 8 8 6 4 1 5 3 4 4 5 3 9 15 5 6 6 7 9 10 11 10 9 9 12 12 11 12 12 11
6 7 5 19 33 34 22 7 6 6 6 9 8 5 3 3 4 5 6 5 4 3 1 3 8 8 6 5 4 5 6 4 6 7 5 7 10 8 7 9 10 10 9 5 4 4 3 3 5 7 5 6 5 2 1 3 1 3 5 5 7 7 7 7 8 6 3 3 3 4 5 14 6 7 7 7 8 10 10 10 9 9 11 11 11 11 10 10
6 5 6 24 41 34 15 5 7 5 6 7 6 5 4 3 3 4 6 7 6 4 4 5 8 8 6 4 4 6 7 6 7 8 5 6 10 10 7 10 11 9 7 3 1 1 2 3 4 7 4 3 4 3 2 2 2 3 6 5 7 9 10 9 6 3 3 4 4 4 6 14 6 4 5 3 3 5 6 8 9 8 8 9 10 10 9 10
7 4 3 20 37 28 12 8 9 9 9 8 9 10 6 3 5 7 7 9 8 6 8 9 6 5 6 5 6 7 8 7 7 8 7 7 7 7 9 13 12 9 6 5 5 5 4 3 4 5 5 5 4 3 2 1 2 4 6 5 8 13 11 4 0 2 3 7 8 5 12 16 6 2 1 1 2 5 7 7 7 7 7 7 8 8 9 9
6 3 2 13 25 19 9 6 6 9 13 13 13 13 9 6 7 9 10 10 8 5 5 6 4 4 6 5 5 8 9 8 8 5 7 8 4 2 7 14 15 13 9 7 8 7 5 5 6 7 10 10 9 7 4 4 3 2 4 5 10 16 15 8 3 5 8 8 9 9 18 16 10 5 1 2 5 7 10 8 6 7 7 7 7 8 9 10
6 3 2 6 10 10 8 6 3 4 9 12 10 9 13 12 7 6 10 10 7 4 3 4 3 5 7 8 8 11 11 10 9 5 6 7 3 3 2 8 14 12 5 3 7 8 3 4 9 14 16 14 14 12 5 6 5 6 10 12 14 16 16 12 8 7 11 9 8 18 21 15 21 20 6 4 9 10 12 11 8 8 8 7 8 9 10 10
6 5 6 6 4 7 9 8 8 6 4 8 7 7 13 16 8 4 8 10 7 6 5 6 5 6 9 11 11 11 10 8 9 12 13 9 3 4 2 1 7 6 3 2 5 6 3 6 14 18 19 17 17 14 6 9 8 12 14 17 18 16 15 14 14 14 14 10 12 22 19 14 26 27 12 11 15 13 16 16 10 10 10 9 9 9 10 10
6 5 8 9 6 8 11 13 15 14 10 9 8 7 9 13 12 9 8 7 6 8 7 7 11 16 15 11 7 8 8 9 12 15 16 12 5 3 2 1 3 3 1 1 3 3 3 10 15 16 17 17 17 15 8 9 9 10 12 18 19 18 18 18 20 23 20 14 17 22 20 21 29 23 13 16 17 15 19 18 9 9 9 8 9 9 11 12
6 1 5 9 7 10 13 16 17 17 19 15 10 10 12 16 18 13 6 5 6 10 13 13 17 20 18 12 8 8 9 12 14 14 13 11 7 5 3 4 3 1 2 3 2 2 4 8 13 13 13 16 19 18 10 8 10 10 11 19 19 16 18 21 24 27 24 19 22 25 25 29 28 18 14 19 18 14 16 13 6 8 9 9 11 12 13 13
8 3 6 8 8 10 10 11 12 13 17 15 12 13 16 18 21 13 7 9 11 9 14 21 20 14 14 15 15 16 18 19 18 14 9 8 7 5 4 6 3 1 2 4 2 2 4 7 10 8 9 15 19 17 11 11 13 12 16 25 21 12 13 22 25 22 17 17 24 27 26 27 24 17 16 18 16 13 15 15 12 10 9 11 12 12 13 13
12 8 9 7 7 11 11 10 11 10 10 12 14 16 16 20 23 16 7 10 15 11 12 20 21 11 10 15 19 23 26 23 20 17 10 7 7 6 5 6 7 4 4 4 2 3 5 5 6 4 7 15 15 11 10 10 7 10 21 31 24 14 16 23 20 14 14 19 23 23 20 20 20 17 16 16 15 16 19 20 18 14 11 12 13 13 14 14
13 7 8 6 6 10 10 9 11 10 8 11 17 19 17 19 19 13 7 8 16 17 12 15 18 12 9 16 23 27 26 23 22 20 13 6 6 6 5 5 8 8 6 5 3 3 5 5 5 6 10 14 9 3 5 4 2 11 20 23 22 20 23 23 16 16 21 21 17 17 18 20 18 15 16 18 18 19 20 18 16 15 11 11 13 14 14 15
Wind_Direction
9 7 5 5 5 6 6 6 6 6 6 5 6 7 9 10 11 10 8 5 3 4 3 343 269 258 249 212 227 356 7 20 48 69 65 37 13 11 5 3 5 8 10 10 19 40 14 10 1 11 100 107 22 215 27 35 62 52 84 82 89 167 200 184 179 195 177 202 213 214 197 147 167 186 173 64 47 52 28 353 316 322 345 190 143 132 149 159
7 6 3 3 2 2 2 1 2 2 2 2 2 3 4 7 7 7 6 3 358 358 360 350 290 250 238 237 258 333 348 345 42 60 51 29 12 9 8 6 6 10 14 16 22 35 35 359 336 8 60 66 355 342 44 28 60 83 113 75 224 201 204 188 175 194 186 174 198 211 181 176 199 167 157 178 232 245 187 260 326 334 318 162 145 140 152 163
5 4 3 1 360 360 358 357 357 357 359 359 359 359 0 2 4 4 3 1 357 356 356 353 317 262 241 247 261 329 343 338 46 47 22 16 15 7 9 11 8 11 17 23 24 31 45 16 319 30 51 57 352 359 37 11 41 134 106 72 240 218 234 228 180 199 226 141 170 209 165 206 226 153 158 180 180 207 205 210 202 215 210 189 176 158 159 166
3 1 1 359 357 356 355 354 352 353 354 355 356 357 356 358 1 1 1 0 357 356 354 352 337 291 249 246 257 311 341 21 166 289 359 11 14 4 2 9 10 12 18 28 34 39 46 50 66 59 63 55 338 20 55 344 348 125 102 145 225 181 254 241 186 205 224 146 162 168 140 232 234 153 178 154 149 240 235 219 202 200 189 179 187 176 167 165
360 357 357 355 354 353 351 349 348 348 348 349 352 353 353 354 357 358 359 359 355 356 356 350 340 325 267 239 247 301 357 60 215 271 8 6 9 1 358 6 9 14 21 28 40 56 44 35 53 45 51 56 349 28 53 310 89 80 65 209 210 148 237 250 191 192 165 121 117 134 177 208 165 168 193 167 190 230 223 224 215 201 180 174 178 176 171 166
355 353 353 350 350 349 347 345 344 343 342 344 346 348 350 349 352 355 356 357 353 349 354 351 341 337 305 230 240 309 44 112 240 274 318 345 3 357 1 4 10 15 18 27 35 53 43 26 48 51 44 56 16 38 328 301 27 68 323 253 219 184 233 268 200 191 153 132 148 178 199 148 142 250 214 186 221 228 215 237 214 196 180 171 163 164 170 170
349 349 347 345 344 343 343 341 340 339 339 340 342 345 347 346 349 351 352 355 349 342 348 348 338 334 347 215 236 45 71 238 269 284 288 339 337 346 3 6 15 11 6 25 27 53 63 36 56 103 76 59 71 160 280 315 16 85 128 271 222 196 229 255 238 194 160 176 201 174 144 151 184 238 178 206 234 243 309 268 185 165 162 160 157 165 175 172
344 343 341 341 339 338 337 336 337 337 336 337 339 342 344 344 345 346 348 351 346 337 341 344 331 325 56 109 148 25 354 254 286 298 289 319 315 337 357 7 18 14 36 41 32 81 83 48 81 137 67 56 152 46 341 352 20 77 149 244 213 212 247 269 283 232 196 216 205 130 161 209 206 209 252 233 237 251 358 81 134 141 148 162 170 174 175 170
340 337 337 336 334 334 332 332 333 334 334 334 336 338 340 341 341 343 344 346 344 331 336 343 315 185 119 77 87 14 288 246 355 310 303 304 310 332 348 16 21 23 54 53 40 63 75 75 163 177 117 137 159 83 359 16 358 180 157 223 236 260 278 283 257 237 215 230 138 153 217 263 260 295 274 247 227 172 103 110 129 144 158 178 180 179 176 171
334 332 331 331 331 332 330 330 330 331 332 331 333 334 337 338 338 340 341 343 340 327 335 341 304 205 189 72 81 39 255 257 343 317 334 311 316 334 358 26 24 32 60 58 47 57 79 159 163 150 126 113 155 143 341 69 141 190 179 228 242 272 289 282 251 265 268 234 180 188 236 275 330 321 264 260 181 141 127 133 157 163 176 185 184 187 181 181
328 328 326 325 327 327 328 328 327 328 328 329 331 331 333 335 336 337 339 341 334 327 334 330 311 239 203 94 110 209 237 172 312 328 337 310 334 358 27 31 25 44 68 70 64 68 90 149 144 126 103 93 158 82 249 146 125 173 194 264 291 314 298 295 279 276 302 222 182 179 239 277 13 256 245 246 156 156 148 160 181 183 190 189 188 192 189 196
322 324 324 323 323 323 325 325 325 326 325 326 327 328 331 332 333 334 336 338 328 329 336 323 302 227 144 68 163 212 222 212 272 323 336 333 24 38 43 30 29 46 66 86 87 82 92 142 127 93 41 149 162 354 144 120 102 157 72 322 299 350 12 197 294 275 180 208 174 154 277 266 202 228 251 166 152 149 150 174 191 196 199 195 198 198 202 207
317 320 321 321 320 320 322 323 323 323 322 324 325 326 329 329 330 330 333 335 316 324 339 324 278 218 97 348 217 209 218 222 245 306 351 9 48 63 48 33 39 49 62 95 108 101 93 128 110 98 120 110 93 290 103 46 37 210 49 49 311 355 359 195 48 352 159 184 161 137 287 268 222 232 244 145 153 141 163 196 198 203 204 200 207 205 211 210
313 314 315 317 318 318 318 321 322 321 321 322 323 325 326 328 327 327 330 329 307 317 332 324 269 179 112 267 244 223 229 218 213 251 3 26 59 79 49 39 55 63 69 87 102 98 89 110 101 93 97 92 101 291 25 11 26 360 355 52 16 350 283 272 274 144 166 201 30 114 247 271 260 251 221 170 168 162 186 208 201 206 206 202 210 207 214 212
308 308 310 311 313 316 316 318 320 321 321 322 324 324 325 327 324 324 327 322 307 313 326 324 214 129 51 282 277 257 233 215 215 245 349 19 51 85 47 53 81 81 79 83 94 94 86 107 92 73 236 42 52 54 11 348 13 25 324 310 341 215 273 300 276 173 191 297 9 124 225 273 275 271 226 177 177 182 199 210 205 209 206 204 211 208 214 216
304 305 306 306 308 313 314 315 319 320 321 323 325 324 326 326 321 322 325 317 309 304 318 322 177 120 36 274 286 292 241 210 219 249 280 2 36 71 62 76 90 87 89 89 97 101 75 78 79 69 144 71 62 78 41 7 346 4 47 257 279 230 291 317 311 214 224 263 308 212 232 275 275 277 252 182 184 197 214 220 214 215 209 206 210 208 211 211
303 304 305 305 305 310 314 314 318 321 322 325 327 326 328 324 318 322 329 327 327 295 105 126 151 124 277 262 275 300 285 199 205 271 301 15 32 48 78 85 84 82 84 92 102 87 34 47 73 294 50 62 78 84 40 353 310 327 7 260 255 236 261 302 301 296 36 167 227 230 235 260 266 264 224 194 192 200 220 225 220 219 213 210 209 209 211 208
303 304 305 305 304 308 315 316 318 321 324 327 331 329 326 322 319 324 328 338 23 73 90 78 85 91 279 290 284 280 335 321 220 283 306 335 23 37 80 94 113 82 41 44 53 30 7 22 49 351 17 9 37 83 106 248 224 250 269 259 278 270 239 254 270 290 36 239 232 224 244 258 269 270 239 197 194 205 221 225 224 222 215 214 213 211 214 212
302 305 305 307 305 307 313 318 320 323 327 330 336 335 329 331 333 322 351 15 31 75 232 243 158 161 249 290 302 305 6 5 233 225 204 116 68 62 86 84 100 97 47 10 5 25 19 23 46 67 296 282 236 155 190 207 185 203 217 199 236 264 259 244 240 258 343 275 256 238 240 258 270 275 265 212 192 213 226 230 231 225 216 215 217 216 214 215
302 304 305 308 306 306 313 319 320 326 332 337 345 349 352 6 358 328 345 339 232 198 244 228 208 233 259 281 297 295 296 304 237 203 151 136 123 94 79 53 47 65 90 200 257 31 71 19 252 222 229 236 222 193 183 172 154 150 150 185 231 242 267 267 247 275 208 213 266 250 238 257 263 271 273 235 186 222 230 232 235 223 217 215 215 220 215 216
304 304 306 309 307 307 312 317 322 328 333 341 353 5 63 51 356 300 324 305 264 244 251 239 216 257 262 252 284 320 354 306 291 208 170 147 107 134 282 22 71 347 285 202 230 11 61 232 239 220 217 218 199 167 135 126 132 126 171 217 263 239 257 274 267 307 310 175 265 274 260 260 257 266 273 248 185 227 224 221 235 224 219 221 216 221 217 210
303 303 307 309 307 308 312 317 323 327 330 340 3 51 119 105 161 219 327 301 291 285 237 255 259 269 261 242 236 110 75 283 295 275 181 138 81 181 245 50 132 219 315 105 198 357 14 251 244 217 178 118 95 131 127 122 139 143 165 201 271 255 276 292 307 355 348 175 267 293 283 268 261 261 267 256 218 238 225 216 233 224 217 222 218 220 212 201
297 302 310 312 310 308 311 319 321 325 334 349 21 80 106 101 139 167 128 288 291 295 219 225 215 240 262 257 208 158 170 227 266 285 182 148 113 178 152 102 142 207 343 171 181 165 251 258 252 180 140 114 89 113 119 106 140 170 162 194 257 273 309 286 309 347 302 233 273 290 281 268 262 255 264 268 243 251 240 226 238 226 221 226 219 216 208 203
295 303 309 312 314 311 314 322 317 324 342 10 51 75 88 107 136 177 198 287 289 291 250 209 203 207 211 215 171 163 200 212 202 275 180 147 136 152 157 145 136 207 238 196 173 199 240 243 131 106 123 136 133 133 141 157 246 245 205 210 243 260 244 243 296 331 312 312 321 304 292 274 252 244 261 294 329 277 254 243 252 233 229 237 225 220 212 206
297 301 305 311 316 317 324 320 314 343 353 41 95 68 84 125 168 159 56 13 294 297 284 218 220 210 185 110 139 166 165 229 215 233 183 153 144 138 178 161 153 217 218 153 153 239 262 236 137 125 117 137 159 191 191 179 212 289 235 214 227 240 248 271 333 347 342 326 327 2 322 287 284 264 262 279 326 288 237 239 256 240 221 228 229 225 213 206
293 293 301 309 312 319 324 309 319 355 353 100 125 40 77 167 226 198 80 50 283 279 289 212 202 185 173 111 121 166 134 272 255 154 152 167 164 140 145 163 115 212 174 132 158 237 269 351 100 148 153 146 178 231 229 172 147 282 245 198 201 200 228 274 334 343 291 261 297 46 307 274 287 271 267 281 299 282 257 246 258 248 219 219 227 225 208 202
287 288 302 306 309 319 318 256 303 336 328 131 79 9 29 185 209 231 39 8 279 236 159 255 282 157 172 199 12 144 190 272 5 88 137 169 197 110 158 203 155 194 178 133 219 239 166 83 57 108 120 141 194 241 224 158 132 237 224 138 133 135 176 200 152 277 246 267 302 197 185 275 281 247 267 299 292 279 275 267 264 250 227 227 229 221 207 203
280 285 303 302 305 317 305 261 288 295 171 113 23 2 351 191 193 73 68 273 271 207 142 219 144 123 133 96 67 111 217 284 105 235 323 110 193 77 204 224 179 187 189 147 212 261 131 156 183 146 116 186 212 229 194 160 153 242 194 131 123 131 159 163 153 236 278 2 290 218 160 276 274 250 315 5 267 270 273 265 263 254 234 231 231 221 210 205
275 284 298 294 292 303 292 264 260 229 196 78 36 22 167 185 172 71 86 245 266 115 153 126 136 121 55 91 37 42 317 328 158 260 350 72 197 66 194 212 151 165 202 155 221 256 119 193 192 152 160 218 215 244 188 166 190 213 140 107 74 75 80 94 135 225 23 328 266 227 169 228 272 236 101 57 234 251 259 259 261 259 246 232 229 221 208 201
271 275 284 279 277 291 285 263 251 239 229 205 153 174 160 133 87 101 217 246 258 276 165 113 181 178 97 117 277 314 268 274 291 342 16 81 6 29 142 172 101 120 328 347 269 251 311 259 178 156 187 190 142 98 124 136 144 130 105 58 29 37 47 56 64 65 33 275 266 229 180 193 277 257 182 186 213 215 222 250 266 269 263 240 226 215 199 198
273 268 268 266 266 274 278 269 250 226 206 185 176 161 135 58 83 165 229 243 252 264 176 178 218 126 122 149 205 244 207 269 277 144 136 174 37 37 89 172 96 76 355 323 279 288 337 319 202 213 166 131 100 80 62 55 85 104 84 55 13 335 8 23 358 41 82 258 268 225 173 187 244 252 221 233 247 223 205 224 244 253 260 248 225 209 199 199
273 267 263 261 256 254 252 257 291 28 169 166 159 119 100 76 230 197 238 277 270 226 180 181 206 151 152 156 209 203 182 238 228 168 165 160 161 182 201 192 164 99 306 249 265 329 303 223 222 235 167 139 113 84 27 360 45 96 91 82 47 324 358 346 310 52 223 253 259 144 150 219 246 243 236 242 251 240 221 220 227 245 266 263 223 209 205 198
265 261 257 254 251 250 247 253 272 290 204 167 153 66 86 205 235 185 197 247 236 226 127 102 92 130 132 126 246 209 178 236 199 171 182 147 170 230 247 225 174 172 256 213 278 331 295 298 329 170 255 172 152 160 207 267 150 148 145 131 146 137 42 272 274 278 266 270 253 158 161 266 273 256 229 225 230 231 226 230 241 262 284 273 231 211 208 204
257 254 253 257 255 249 244 251 259 261 246 175 117 75 125 223 232 167 194 222 226 343 36 100 88 92 135 186 233 193 184 235 178 152 183 141 168 237 242 232 202 159 118 136 155 193 250 292 221 182 228 179 180 195 168 140 147 175 157 139 155 155 170 223 231 244 274 291 261 188 199 230 247 282 232 215 229 242 252 281 276 292 291 266 235 213 211 212
247 246 252 257 252 248 245 245 245 249 267 163 122 147 204 220 202 169 205 211 200 24 44 75 91 106 218 251 256 222 212 234 146 133 186 178 188 214 203 206 197 161 135 172 219 171 223 268 246 197 184 167 184 204 112 111 138 217 126 121 178 176 169 214 220 203 258 313 273 201 222 223 213 281 272 244 275 272 310 336 334 326 297 215 210 215 214 212
232 235 245 243 241 243 240 235 236 240 231 117 168 209 220 217 175 184 199 177 181 156 126 349 94 135 246 267 251 242 227 231 161 143 213 213 218 218 206 211 193 180 178 180 199 181 215 274 275 60 347 185 183 187 132 138 180 177 135 173 214 163 137 173 269 330 63 293 268 213 247 273 318 278 273 3 287 262 265 295 314 321 274 209 221 218 212 211
216 221 228 226 232 234 227 225 226 223 161 115 215 221 215 211 185 180 174 156 164 135 136 211 207 177 217 232 221 208 182 219 191 176 212 218 232 205 196 240 198 187 199 196 202 211 204 263 255 155 203 245 185 159 83 46 133 135 181 209 184 108 101 114 250 329 28 257 271 264 256 268 282 268 298 356 266 254 244 241 260 286 241 222 232 221 212 212
209 219 229 225 229 224 213 215 210 195 126 156 236 237 211 204 203 180 158 146 141 138 159 209 209 184 193 203 221 189 172 194 182 184 205 210 244 187 162 212 205 194 207 203 217 245 175 244 268 164 195 263 38 118 183 352 102 137 202 223 117 142 194 118 158 247 246 246 274 282 277 267 206 208 214 203 230 242 237 221 228 245 226 223 232 220 212 209
209 234 242 223 225 218 202 201 193 170 141 203 230 240 215 213 232 196 170 162 148 159 184 212 210 196 183 183 197 184 185 195 176 184 209 195 235 206 164 196 207 202 207 192 198 232 132 215 260 288 248 272 36 170 194 192 72 87 218 314 39 159 180 162 160 184 183 228 271 288 295 281 208 182 182 196 210 215 209 204 221 229 221 219 222 211 207 204
199 244 246 190 204 202 188 183 179 169 203 215 227 240 222 241 255 223 201 192 181 178 193 208 207 211 204 194 205 195 195 202 178 190 222 197 224 237 202 198 179 176 189 178 197 197 108 216 236 271 336 231 197 210 196 180 162 149 181 226 234 171 121 207 233 145 146 205 251 278 285 274 222 161 176 191 199 200 195 201 219 224 220 218 213 204 203 204
181 244 234 166 180 181 170 167 198 199 213 229 238 249 251 240 226 230 231 216 215 212 160 170 196 206 201 201 217 194 180 199 191 196 233 216 217 238 214 190 161 142 118 118 213 205 168 202 211 206 233 217 222 242 192 185 172 171 191 198 195 176 126 185 251 222 160 205 212 187 268 272 243 147 175 182 183 197 200 203 213 218 218 215 211 207 201 201
182 237 194 165 174 170 159 174 215 201 218 224 230 248 241 233 218 228 240 225 226 250 125 181 209 207 200 196 194 180 178 198 202 203 232 223 214 226 211 175 158 150 144 157 215 206 136 138 214 228 228 228 250 308 164 203 186 200 217 195 181 175 162 189 230 225 174 219 208 119 266 272 245 155 186 188 185 204 203 197 206 216 218 215 210 207 202 203
204 221 152 166 173 165 154 210 215 206 235 225 232 260 252 252 243 219 218 214 214 213 221 231 212 209 225 202 169 187 194 206 208 200 219 235 224 225 196 158 150 151 155 165 214 177 107 124 221 248 278 322 326 353 80 79 60 251 241 190 174 199 201 202 214 186 164 218 191 118 254 261 250 167 200 196 187 231 221 200 208 217 219 219 210 202 200 201
200 189 122 173 178 172 170 205 203 209 227 224 232 240 243 262 243 221 209 209 206 197 216 231 213 210 231 194 188 211 199 207 225 206 207 233 240 226 182 161 160 170 187 194 179 181 195 175 188 241 280 306 313 334 348 298 188 223 237 193 193 217 219 221 79 131 225 210 160 161 249 253 252 127 138 315 278 263 254 224 216 225 221 215 210 200 197 194
182 159 96 181 187 192 207 213 193 202 214 218 226 229 233 252 239 223 218 218 218 199 215 236 207 199 217 193 213 231 207 215 238 222 212 227 256 262 181 177 182 191 208 208 173 162 190 190 179 211 233 239 242 241 227 210 193 220 246 207 207 216 212 213 219 203 227 206 152 202 244 257 271 249 154 314 271 257 258 244 230 241 232 214 207 200 194 191
177 171 153 178 196 215 239 247 222 206 206 211 222 222 221 233 243 224 217 226 238 227 238 261 206 199 219 207 219 236 227 229 238 236 233 224 238 308 216 193 202 206 228 230 171 158 175 206 204 218 226 227 237 240 186 129 152 207 223 217 217 217 210 216 229 216 226 226 208 232 243 265 274 262 249 278 260 251 258 255 240 238 232 216 210 204 198 196
183 191 177 167 191 219 233 240 229 231 200 184 199 210 212 222 236 228 205 208 215 212 235 260 224 214 222 208 215 234 229 231 238 240 245 238 237 301 319 205 231 244 326 332 199 172 174 229 223 227 233 234 245 248 188 147 189 208 214 222 224 219 208 213 228 227 224 228 240 245 247 257 262 260 261 266 261 259 267 265 249 234 225 211 209 204 199 199
192 201 182 171 174 200 211 216 213 217 213 192 197 215 216 217 219 216 203 192 193 193 202 236 228 224 223 207 206 232 226 230 238 237 241 241 229 260 301 246 251 267 334 307 250 172 189 240 233 231 241 244 251 253 206 174 215 213 208 224 225 216 209 212 227 231 224 224 241 249 249 248 254 259 263 262 260 260 268 272 256 230 222 204 201 201 197 197
198 228 186 180 192 200 205 211 207 209 215 214 215 222 225 227 224 215 175 161 206 200 195 218 228 222 222 216 212 226 223 227 237 235 235 235 214 188 224 247 249 260 186 219 264 168 187 245 244 240 252 252 252 252 222 197 235 237 230 236 228 214 212 217 227 232 228 231 244 251 253 253 256 260 259 261 264 262 271 280 252 216 215 200 200 205 201 199
195 190 187 189 211 211 209 211 202 205 215 215 221 226 227 233 233 223 171 180 209 201 195 219 230 216 209 217 222 230 229 227 237 240 221 212 210 193 205 227 219 82 208 210 237 221 206 239 247 246 259 254 251 252 234 218 233 241 249 250 238 207 213 229 233 234 234 239 245 250 255 259 261 261 258 263 271 273 273 271 255 236 217 203 207 209 203 202
220 212 194 192 210 207 208 208 197 203 214 207 216 225 225 231 232 228 216 208 217 213 196 214 228 219 201 215 222 231 234 232 238 244 225 191 200 207 212 214 197 186 214 207 182 190 196 223 244 237 249 252 252 249 231 221 234 246 251 251 242 213 221 236 237 230 226 234 244 250 253 257 261 265 265 264 265 265 264 263 260 253 228 208 212 212 204 203
233 223 193 204 220 201 201 210 202 203 210 205 213 219 220 228 230 227 235 230 222 223 207 203 217 220 212 221 225 229 234 235 238 244 240 211 203 220 235 228 207 195 193 192 189 188 188 208 224 217 239 253 253 216 178 158 237 255 248 244 238 229 233 242 248 241 231 228 237 245 245 250 259 268 270 267 262 257 256 255 256 255 239 215 214 213 206 204
Height
829 828 827 826 825 824 823 822 821 820 819 818 817 815 814 813 811 810 809 808 807 805 804 804 803 803 802 802 801 801 801 800 799 798 798 800 800 799 798 797 797 795 795 794 792 792 792 792 792 792 792 794 799 800 800 802 804 804 810 815 816 825 823 816 820 821 814 808 810 816 815 812 815 823 826 826 827 828 829 829 830 829 828 828 826 826 827 828
830 829 828 827 826 825 824 823 822 821 820 818 817 816 815 813 812 811 809 808 806 805 804 803 803 802 802 802 801 801 800 800 799 799 799 800 799 798 798 797 796 795 794 793 792 792 792 794 793 792 793 796 800 800 800 803 803 807 815 817 817 820 815 812 814 815 813 807 807 814 817 815 812 817 823 821 824 829 827 827 831 830 828 828 827 827 827 829
830 829 828 827 826 825 824 823 822 821 820 818 817 816 815 813 812 811 809 808 806 805 804 803 803 801 802 801 801 801 800 799 800 800 800 799 799 798 798 797 796 795 794 794 793 792 792 793 793 793 794 798 803 802 801 803 805 811 815 814 815 814 810 811 812 812 812 810 808 812 817 818 814 817 820 818 823 828 823 819 824 824 825 826 826 826 827 828
830 829 828 827 826 825 824 823 822 821 820 819 818 816 815 813 812 811 809 808 806 805 803 802 802 801 801 800 801 801 799 801 802 800 799 799 798 798 797 797 796 795 795 794 793 793 792 793 792 793 795 799 804 804 805 806 807 811 813 812 813 813 811 807 809 811 813 814 810 811 817 816 816 819 819 818 820 823 818 812 810 810 815 821 823 824 824 825
831 829 829 828 827 826 825 823 822 821 820 819 818 816 815 813 812 810 809 807 805 805 803 802 801 800 800 799 801 799 800 807 804 798 799 799 798 798 797 796 796 795 795 794 793 793 792 793 793 795 798 801 803 803 806 810 809 810 814 815 814 815 811 804 807 811 812 814 811 811 812 810 816 818 816 816 810 806 806 805 804 805 809 814 817 820 822 823
831 830 829 828 827 826 824 823 822 821 820 818 817 816 814 813 812 810 809 807 805 804 803 802 800 800 799 799 800 799 803 809 802 797 799 798 797 798 797 796 795 795 794 794 793 793 793 795 795 799 802 804 809 807 807 811 810 809 814 817 816 816 811 805 807 809 811 811 808 809 808 811 815 812 813 814 801 796 801 803 804 807 810 811 814 818 820 822
831 830 829 828 827 825 824 823 822 821 819 818 817 816 814 813 811 810 809 807 805 804 803 801 800 800 799 799 799 799 803 803 798 797 798 797 797 797 796 796 795 794 794 793 793 793 796 797 798 804 805 806 812 811 808 810 809 807 811 814 815 817 811 806 808 808 810 807 807 811 809 810 810 808 813 809 797 797 803 804 804 807 811 814 815 818 819 820
831 830 829 828 827 825 824 823 822 821 819 818 816 815 814 812 811 810 808 807 805 803 802 801 800 799 799 799 799 802 803 799 797 797 797 797 797 796 796 795 795 795 794 793 794 794 797 799 802 806 806 807 810 810 809 808 807 808 811 813 814 814 809 807 809 807 809 808 811 813 808 809 809 812 813 802 795 800 804 804 806 808 812 815 815 816 818 819
831 830 829 828 826 825 824 823 822 820 819 817 816 815 813 812 810 809 808 806 804 803 801 800 799 799 799 799 800 805 802 797 797 796 796 797 796 796 795 795 795 794 794 795 796 793 796 800 803 804 804 809 811 809 810 807 808 811 811 812 812 811 807 808 807 805 808 809 813 811 807 810 814 816 806 793 796 802 805 806 808 810 812 814 815 816 817 818
831 830 829 828 826 825 824 822 821 819 818 817 815 814 813 811 810 808 807 806 804 802 801 800 799 799 799 798 802 806 799 795 796 796 796 796 796 796 794 795 794 794 795 796 796 795 797 799 801 801 801 808 810 811 811 809 810 812 812 812 812 811 811 811 806 806 810 810 811 808 806 810 816 816 798 790 801 804 805 808 810 811 812 813 814 816 817 817
831 830 829 827 826 825 823 822 821 819 818 816 815 813 812 811 809 808 806 805 803 802 801 800 799 799 798 798 804 804 796 795 796 795 796 795 795 795 794 795 794 795 795 796 797 797 798 798 800 801 801 806 808 811 812 810 810 812 812 811 811 811 812 814 808 808 811 807 808 808 807 811 817 813 794 791 804 805 804 808 811 812 812 814 815 816 817 817
830 829 828 827 826 825 823 822 820 819 817 816 814 812 811 810 808 806 805 804 802 801 800 799 799 798 798 799 801 799 794 795 795 794 795 795 795 795 795 795 794 795 795 797 799 798 799 799 799 800 803 805 806 809 810 811 812 812 813 809 807 807 807 811 809 810 811 805 807 809 805 806 808 801 790 797 806 806 808 808 811 812 812 814 815 816 816 816
829 828 828 827 826 824 823 822 820 819 817 815 813 812 811 809 807 805 804 803 801 801 800 799 799 798 799 800 797 794 794 794 794 794 795 794 795 795 795 795 795 796 795 796 798 799 800 799 800 801 804 805 806 808 808 812 812 810 814 812 809 806 804 808 811 812 810 806 807 809 804 794 792 790 791 803 807 807 809 808 810 811 812 814 814 815 814 814
829 828 827 826 825 824 823 821 820 818 816 815 813 811 810 808 806 804 803 802 800 800 799 799 799 798 800 799 793 792 793 794 794 794 794 794 795 795 795 795 795 796 796 797 798 799 800 800 800 801 805 807 807 807 808 812 812 812 814 816 820 814 804 805 812 811 806 808 808 808 809 794 783 785 792 803 805 804 804 805 809 809 810 812 812 813 812 812
827 827 826 825 825 824 823 821 820 818 816 814 812 810 809 807 804 802 802 800 800 800 799 799 798 799 802 798 792 793 793 793 794 794 794 795 794 795 795 795 796 796 797 797 798 799 800 800 801 803 807 809 808 808 810 812 814 818 813 813 824 821 808 805 810 811 804 807 809 807 809 798 784 784 793 803 805 803 800 801 806 806 808 809 809 810 809 810
826 826 825 824 824 823 822 821 819 818 816 814 812 810 808 805 803 801 800 799 799 799 798 799 798 799 803 798 792 792 792 793 793 794 794 794 794 795 795 795 796 796 797 798 798 799 800 800 805 809 808 808 809 809 812 813 814 823 821 813 818 819 816 809 806 812 809 806 808 807 805 796 785 785 796 805 805 804 801 800 803 803 804 806 807 808 808 809
825 825 824 824 823 822 821 820 819 817 815 813 811 808 806 804 801 800 799 799 798 798 798 798 797 800 800 794 792 793 793 793 793 794 794 794 795 795 795 796 796 797 798 798 798 799 800 802 809 811 810 814 816 812 813 816 812 820 826 819 818 820 820 814 804 809 812 807 806 807 807 797 784 782 794 802 804 805 801 797 798 800 802 803 805 806 806 807
824 824 823 823 822 822 821 820 819 817 815 813 811 807 804 802 800 799 799 799 798 798 799 798 799 803 800 793 794 794 793 793 793 794 794 794 795 795 795 796 797 797 798 799 799 800 801 805 810 809 811 815 815 812 814 817 812 815 820 818 819 822 822 819 810 808 809 807 807 808 808 798 785 780 785 795 802 801 795 793 793 796 800 801 803 804 804 803
823 823 822 822 821 821 820 819 818 816 814 812 810 807 802 800 799 798 798 799 800 800 801 800 800 804 801 795 795 794 793 794 793 793 793 794 795 795 796 796 798 797 800 802 801 804 805 806 810 809 807 806 807 809 809 809 811 814 818 819 819 819 819 816 812 810 810 808 807 807 805 796 786 779 775 785 798 796 790 792 793 794 798 800 800 800 800 800
822 821 821 821 820 819 819 819 818 816 815 812 809 806 804 806 804 802 801 799 800 800 800 800 799 799 797 795 795 794 794 794 793 793 793 794 794 795 796 797 799 799 802 804 803 809 811 807 808 805 800 799 803 809 810 811 815 817 820 822 821 822 818 810 808 812 814 811 803 801 804 798 788 779 771 777 791 792 790 792 790 791 792 794 796 795 795 796
821 820 820 820 818 818 818 818 817 816 815 813 811 809 811 814 813 812 809 801 798 799 798 797 798 797 794 794 794 793 795 793 792 793 793 793 794 795 797 798 801 802 806 810 809 811 813 809 802 797 798 802 807 814 815 816 818 818 819 820 821 824 818 808 810 814 817 814 804 799 803 798 789 780 768 772 782 780 782 786 782 783 787 788 789 789 791 794
821 819 819 819 817 817 817 817 817 816 816 814 813 813 815 817 815 816 816 808 799 797 797 797 797 796 793 793 793 794 796 795 793 792 792 794 794 796 798 801 803 803 809 813 809 810 813 805 795 797 807 812 815 819 815 813 817 818 821 823 821 820 816 809 813 819 819 816 806 801 803 793 784 779 766 764 771 769 771 775 771 773 778 781 782 784 788 792
820 819 819 818 816 817 816 817 816 815 815 814 814 815 816 816 816 816 817 813 803 795 795 795 794 794 793 792 792 793 796 796 794 791 792 794 795 798 798 801 805 805 808 809 806 810 808 799 799 808 812 808 811 818 815 813 817 818 821 822 817 817 816 808 811 819 818 815 810 807 802 784 774 772 762 760 766 764 766 768 766 769 770 771 775 779 782 785
818 818 818 816 816 816 816 816 815 815 815 814 815 815 815 816 816 816 815 813 805 795 792 793 793 793 791 790 789 791 795 796 794 791 791 792 795 799 797 800 806 806 807 806 807 808 800 799 810 814 809 804 806 814 815 813 814 816 818 818 814 813 814 811 815 819 814 813 818 809 785 763 765 769 758 762 770 764 764 765 764 768 768 769 772 773 775 778
818 818 817 816 816 815 816 815 814 815 813 813 814 814 816 816 815 817 815 813 808 798 791 791 792 791 788 789 789 790 794 794 791 790 791 791 793 797 799 802 803 802 806 810 812 808 799 805 813 806 806 808 805 809 812 811 813 814 810 811 811 808 811 815 818 819 810 807 816 811 784 758 761 767 755 757 763 757 760 762 757 762 768 769 769 767 770 774
818 818 817 816 815 815 816 814 813 814 812 813 814 813 815 815 815 816 814 818 814 796 789 789 788 786 785 789 791 791 793 791 789 790 790 791 792 793 797 802 802 802 807 810 811 805 801 811 813 803 804 808 806 809 810 811 814 813 809 810 813 813 815 817 818 817 809 808 815 815 802 776 759 756 750 753 756 751 754 755 751 757 764 764 762 762 767 771
817 817 817 816 815 815 815 814 813 813 812 813 812 813 815 813 816 814 814 825 815 788 784 790 787 783 784 789 791 790 790 788 789 790 790 790 791 791 794 800 802 803 807 808 807 801 800 808 810 805 805 807 806 804 807 811 809 808 813 815 813 813 815 815 818 818 814 819 821 814 811 798 774 761 757 759 759 752 751 750 746 750 755 756 757 758 762 765
817 817 816 816 815 815 815 814 813 811 812 812 811 813 813 813 816 812 819 829 806 777 778 786 785 783 784 789 791 790 790 789 787 789 791 791 790 792 793 795 797 798 803 804 798 798 801 801 802 805 805 805 802 799 805 808 802 805 818 820 815 815 817 819 820 820 824 826 815 810 817 806 777 764 767 771 765 751 744 740 734 738 745 748 751 754 757 760
817 816 816 816 815 815 815 813 812 811 811 811 812 812 811 814 814 813 829 828 793 772 777 781 783 784 787 790 791 792 793 791 789 789 791 791 790 792 794 796 796 797 803 802 794 794 801 802 803 803 800 798 800 809 815 806 801 812 823 821 819 821 823 826 822 818 826 821 797 797 813 800 766 754 766 774 765 749 738 732 729 731 738 743 747 750 754 759
815 815 815 815 815 815 814 812 811 810 810 811 811 811 812 814 814 822 836 819 784 777 782 782 784 786 788 790 791 793 793 791 792 791 791 792 791 793 796 798 799 797 802 804 798 797 804 810 810 802 797 799 804 818 824 816 813 819 819 812 812 819 824 830 829 822 819 802 781 786 800 795 771 755 760 758 746 737 728 726 729 728 729 736 743 747 751 756
813 814 815 814 814 815 813 812 810 809 810 810 810 811 812 815 821 829 824 798 780 783 783 784 789 787 787 788 787 792 793 791 792 792 791 793 793 795 797 796 797 801 802 801 797 799 803 805 804 800 801 805 804 810 820 823 823 817 809 807 808 812 817 821 823 823 813 787 776 792 803 799 778 754 750 744 735 735 729 721 720 717 717 727 740 747 750 753
812 813 813 813 814 814 814 812 810 810 810 809 810 811 812 820 825 820 806 786 779 781 778 782 790 788 789 791 788 792 794 789 790 791 790 794 795 794 792 789 791 796 797 797 797 796 793 795 799 798 802 803 795 801 815 819 818 812 808 812 814 815 815 811 809 813 805 785 787 803 803 793 770 743 739 738 730 731 730 723 717 715 717 727 741 748 749 751
810 810 811 812 812 813 813 812 811 812 810 810 812 810 816 824 814 801 796 784 776 779 779 782 790 790 790 790 787 791 793 789 790 791 790 794 796 793 790 789 790 787 787 798 802 794 786 791 801 796 793 796 790 792 800 804 810 810 806 807 811 816 816 807 806 809 796 782 791 806 797 778 752 729 726 726 720 718 722 727 728 728 731 734 741 748 748 750
808 809 809 809 811 811 811 812 812 811 811 812 811 812 820 819 800 790 790 781 776 782 783 784 790 791 790 787 785 789 788 785 788 790 790 795 797 792 787 788 792 787 787 798 799 793 788 783 787 787 783 787 787 784 785 792 806 809 804 803 802 802 801 794 792 790 781 775 788 800 785 755 732 718 716 718 718 720 725 733 738 740 743 743 744 748 750 750
805 806 807 807 809 809 809 812 812 811 813 812 811 814 812 799 789 787 783 777 778 781 784 788 788 788 788 788 788 787 781 779 786 790 791 792 791 786 779 779 787 787 786 792 792 795 795 780 777 788 790 788 787 787 790 790 798 809 810 805 798 790 787 788 788 789 791 790 789 787 765 738 725 718 718 724 721 723 731 736 738 739 743 746 745 747 749 749
803 804 805 805 805 806 809 811 811 812 813 813 813 808 791 774 776 779 770 767 770 772 782 789 785 785 786 784 785 785 780 780 787 789 789 790 786 782 777 771 777 781 776 780 784 786 786 779 783 794 793 794 793 792 794 787 786 804 809 798 796 796 786 786 793 802 809 797 773 762 749 733 728 718 718 726 721 718 729 733 734 739 743 745 744 744 747 747
800 800 801 800 801 804 806 808 810 812 814 817 810 789 771 764 764 763 760 762 764 766 773 777 776 777 776 774 777 780 780 782 787 785 784 786 777 771 774 767 768 772 764 764 771 771 771 772 782 791 785 793 805 798 794 794 791 798 798 790 795 799 792 792 798 799 805 797 769 750 741 731 725 719 719 724 716 711 719 726 731 738 742 741 739 741 744 744
797 798 796 794 796 800 802 805 808 809 815 819 803 775 763 761 756 754 756 758 759 761 765 768 767 766 767 768 769 775 778 777 781 782 776 776 766 756 763 762 760 765 757 757 763 765 769 769 778 796 793 791 804 797 787 795 797 792 792 792 790 788 789 797 801 792 792 794 771 743 733 724 715 711 710 711 707 701 707 719 724 726 730 733 734 738 741 741
797 797 790 785 790 795 799 803 805 809 815 813 796 775 763 756 751 751 750 751 753 756 760 760 757 759 763 763 761 767 773 769 774 776 767 765 761 752 753 750 750 759 757 758 762 761 768 767 770 795 804 793 794 790 780 785 796 795 793 795 790 785 786 789 793 789 783 783 768 746 731 710 696 696 695 696 700 697 701 709 711 711 717 724 728 733 736 737
795 795 783 776 783 789 794 800 803 806 806 795 780 770 762 755 752 750 746 746 747 748 752 754 753 756 759 760 759 760 764 765 769 770 761 757 755 749 748 744 744 757 760 761 762 760 766 767 764 787 807 796 780 774 766 765 779 788 788 790 789 788 790 788 788 786 780 777 771 761 741 701 682 689 687 687 694 695 695 697 698 702 709 718 724 726 729 732
793 791 777 773 779 783 790 799 798 795 792 782 772 766 762 756 751 748 746 746 745 743 745 748 750 751 752 757 760 757 760 764 766 765 757 753 749 742 740 738 740 752 761 765 763 758 762 764 762 773 788 779 762 762 767 762 763 770 772 772 773 778 785 786 783 780 778 774 763 762 749 702 677 686 685 682 689 690 689 690 692 695 700 712 720 719 722 726
787 783 773 772 777 778 785 791 786 783 780 772 765 763 759 754 750 749 747 747 748 746 746 746 745 747 747 749 753 754 756 757 760 760 753 747 744 736 732 735 739 744 750 756 756 753 755 760 761 759 760 764 764 771 780 774 766 766 767 765 765 769 770 769 767 765 769 769 760 766 759 706 673 682 682 678 683 684 686 689 688 690 696 708 715 714 719 722
776 775 773 774 773 774 781 784 780 777 771 763 761 760 758 755 753 750 747 747 748 746 746 743 740 743 745 745 748 750 750 750 750 751 748 743 739 732 730 735 740 742 743 747 751 752 755 758 760 755 750 759 769 773 778 778 772 766 763 765 765 760 752 751 754 755 758 758 756 769 759 703 672 685 687 682 688 691 691 692 687 687 697 708 712 712 717 719
766 770 774 775 774 774 773 767 764 768 766 763 763 761 758 756 752 749 747 745 743 742 741 738 737 740 742 742 743 744 746 745 742 741 743 739 733 730 731 734 738 739 738 737 739 745 751 753 757 760 757 756 760 763 767 772 770 761 754 758 760 753 750 754 757 760 754 743 746 758 736 687 671 689 693 689 691 690 690 696 695 690 695 705 709 711 715 717
762 766 769 771 773 772 762 750 749 756 759 761 762 760 760 757 749 745 745 742 739 739 739 738 739 739 738 740 741 741 742 740 736 737 737 733 730 730 731 732 732 730 728 727 728 734 741 742 746 753 754 750 744 741 744 750 758 758 751 752 755 752 752 751 751 757 749 734 739 738 706 675 672 681 686 688 688 684 684 693 700 698 698 703 707 709 712 714
754 759 765 769 769 767 758 750 751 752 751 757 761 758 758 755 746 741 744 743 740 741 741 738 738 739 738 740 741 739 739 738 737 735 731 728 728 730 734 735 730 727 727 728 729 731 733 734 733 731 729 728 721 717 725 734 741 745 741 741 745 747 749 748 745 746 738 732 732 712 689 688 680 671 679 686 683 682 680 682 689 694 698 703 704 705 708 709
742 744 750 758 762 763 759 755 754 751 746 751 753 746 744 747 745 742 741 740 738 740 742 739 737 739 738 737 740 738 735 738 739 733 727 726 728 732 738 739 735 733 733 732 731 729 729 729 726 721 718 715 709 710 721 727 725 729 732 731 733 738 746 750 743 731 726 731 722 694 690 701 680 663 676 681 675 677 674 669 675 683 690 696 699 702 705 707
731 729 731 736 741 746 748 744 744 747 744 742 739 734 733 738 740 738 735 735 735 738 741 738 734 732 731 733 737 737 735 737 735 728 723 724 729 731 733 734 737 739 737 735 734 732 729 724 717 717 719 715 711 713 721 724 719 720 725 724 723 728 737 742 735 719 716 719 704 685 691 691 667 660 674 672 668 670 664 661 669 675 681 690 695 698 702 704
725 725 727 729 727 728 730 729 735 742 741 737 734 731 728 726 725 725 728 733 734 732 733 730 724 723 727 731 733 733 732 729 724 721 720 723 726 728 728 728 733 741 740 733 732 735 731 720 712 715 718 714 712 711 718 726 723 719 721 717 715 722 728 729 721 707 707 708 694 684 687 674 654 658 668 661 659 664 662 662 668 671 676 684 689 693 696 699
717 717 720 725 724 723 725 728 735 739 737 737 735 728 722 719 716 717 720 722 724 725 725 720 715 719 725 728 728 725 718 713 713 714 716 720 723 725 726 720 722 737 743 733 730 735 731 719 712 715 716 712 707 708 715 721 720 720 719 707 704 719 725 717 706 701 707 708 693 687 687 668 648 653 661 658 657 662 662 661 662 666 672 678 682 686 690 693
707 705 708 716 719 719 721 723 729 734 732 732 730 721 718 715 710 712 715 711 710 714 716 715 715 719 723 724 723 716 706 705 709 709 709 714 716 717 719 715 714 727 737 733 728 728 729 724 716 719 720 709 701 707 712 715 722 726 714 694 696 711 709 696 692 697 701 698 691 693 688 665 647 650 657 657 658 661 658 655 655 657 663 671 675 677 682 686
707 705 705 710 711 711 715 718 722 725 721 717 715 711 710 708 705 711 716 710 702 703 707 710 712 717 721 720 712 703 699 701 703 702 704 708 709 709 712 713 712 716 724 729 728 726 726 722 716 721 720 707 706 714 714 718 728 718 691 676 685 694 688 681 685 686 683 684 687 684 668 650 646 653 656 654 653 654 651 649 650 650 655 664 668 669 673 677